Location: Invercargill
(46.4000°S, 168.3500°E)
Time: 16:18:29
(UTC+12:00)

Mayak - Pass Details

Date: 24 January 2019
Orbit: 584 x 601 km, 97.6° (Epoch: 18 April)

Event Time Altitude Azimuth Distance (km) Brightness Sun altitude
Exits shadow 22:47:52 13° 75° (ENE) 1,746 0.6 -11.5°
Maximum altitude 22:50:19 20° 116° (ESE) 1,392 0.5 -11.8°
Drops below altitude 10° 22:53:26 10° 163° (SSE) 1,956 1.8 -12.2°
Sets 22:56:03 0° 179° (S) 2,871 3.0 -12.5°
